Find Starlink 32782

NORAD ID: 62821 Int'l Des: 2025-018 Owner: SPXS Country: US Constellation: starlink operational
LEOCIRCULAR

現在のビュー

3D地球を読み込み中...

About Starlink 32782

Starlink 32782 (NORAD 62821) is a starlink constellation satellite (v2 mini) launched Jan 24, 2025 by SPXS of US. It operates in LEO, CIRCULAR orbit with a mass of 730.00 kg.

次回通過

Passes for default location (London). Set your location on the main map for personalized predictions.

高度履歴

Loading altitude history...

軌道要素

1 62821U 25018R 26258.40806156 .00020938 00000-0 62942-3 0 9996
2 62821 53.1585 145.6424 0000769 91.5075 268.6016 15.34382836 92264
Epoch: Sep 15, 2026 • Age: 12 hours

現在のステータス

高度 463.8 km
遠地点 / 近地点 N/A
速度 7.64 km/s
衛星直下点 28.43°N, 15.65°W
打ち上げ日 Jan 24, 2025
運用期間 1.6 years
タイプ internet

技術仕様

分類 Payload
質量 730.00 kg
乾燥質量 700.00 kg
長さ 0.30 m
スパン 29.00 m
形状 ? Box + pan
製造者 SPXS
バスタイプ Starlink V2M
フェーズステータス In Orbit
所有者/国 SPXS/US

Most Searched